Powrót do katalogu

STARLINK-30796

AktywnyŁącznośćVLEO
NORAD 58189·PAYLOAD·🇺🇸 United States

Wystrzelony Oct 30, 2023 z Cape Canaveral Space Force Station

Loading…

Następne Przeloty (najbliższe 24 godziny)

TLE

ŚwieżeSource: CelesTrak SupGP

Epoka: Sep 15, 2026, 02:00 UTC

1 58189C 23167Q   26258.08381944  .00046273  00000+0  16758-2 0  2588
2 58189  43.0013 153.5041 0001226 275.9278  96.5866 15.27559462    11

Śledź STARLINK-30796 w czasie rzeczywistym z AllMySat

Download on the App Store